YM2KA-13 Weather Reports


time (UTC)temp
C
wind
direction
speed
KPH
gust
KPH
rain 1hr
cm
rain 24hr
cm
rain mn
cm
humidity
%
barometer
mb
20260507000728 7 255 0.0 0.0 0.00 0.00 0.00 78 1016.8
20260507000344 7 255 0.0 0.0 0.00 0.00 0.00 78 1016.8
20260506235346 7 249 0.0 0.0 0.00 0.00 0.00 79 1016.8
20260506235224 7 168 0.0 0.0 0.00 0.00 0.00 79 1016.7
20260506234347 7 148 0.0 0.0 0.00 0.00 0.00 78 1016.7
20260506233731 7 148 0.0 0.0 0.00 0.00 0.00 77 1016.6
20260506233347 7 172 0.0 0.0 0.00 0.00 0.00 77 1016.6
20260506232349 7 172 0.0 0.0 0.00 0.00 0.00 77 1016.5
20260506232228 7 172 0.0 0.0 0.00 0.00 0.00 76 1016.5
20260506231350 7 170 0.0 0.0 0.00 0.00 0.00 76 1016.5
20260506230724 7 277 0.0 0.0 0.00 0.00 0.00 77 1016.5
20260506230350 7 255 0.0 0.0 0.00 0.00 0.00 77 1016.5
20260506225352 8 255 0.0 0.0 0.00 0.00 0.00 76 1016.4
20260506225231 8 255 0.0 0.0 0.00 0.00 0.00 75 1016.4
20260506224343 8 266 0.0 1.6 0.00 0.00 0.00 74 1016.3
20260506223728 8 258 0.0 0.0 0.00 0.00 0.00 73 1016.3
20260506223344 8 258 0.0 0.0 0.00 0.00 0.00 72 1016.3
20260506222346 8 261 0.0 1.6 0.00 0.00 0.00 71 1016.3
20260506222224 8 246 0.0 0.0 0.00 0.00 0.00 70 1016.3
20260506221346 8 219 0.0 0.0 0.00 0.00 0.00 70 1016.4
20260506220731 8 253 0.0 0.0 0.00 0.00 0.00 71 1016.5
20260506220347 8 285 0.0 0.0 0.00 0.00 0.00 71 1016.5
20260506215349 9 153 0.0 0.0 0.00 0.00 0.00 68 1016.5
20260506215228 9 154 0.0 0.0 0.00 0.00 0.00 68 1016.5
20260506214350 8 210 1.6 3.2 0.00 0.00 0.00 71 1016.5
20260506213724 8 195 1.6 3.2 0.00 0.00 0.00 71 1016.5
20260506213350 8 188 0.0 1.6 0.00 0.00 0.00 72 1016.4
20260506212352 8 152 1.6 3.2 0.00 0.00 0.00 72 1016.4
20260506212231 8 147 0.0 1.6 0.00 0.00 0.00 72 1016.3
20260506211343 8 128 0.0 1.6 0.00 0.00 0.00 72 1016.4
20260506210726 8 151 1.6 1.6 0.00 0.00 0.00 72 1016.3
20260506210342 9 154 1.6 1.6 0.00 0.00 0.00 71 1016.3
20260506205344 9 112 0.0 0.0 0.00 0.00 0.00 71 1016.3
20260506205223 9 112 0.0 0.0 0.00 0.00 0.00 70 1016.3
20260506204345 9 132 1.6 1.6 0.00 0.00 0.00 70 1016.4
20260506203730 9 215 0.0 1.6 0.00 0.00 0.00 70 1016.4
20260506203346 9 224 0.0 0.0 0.00 0.00 0.00 70 1016.3
20260506202347 9 200 0.0 0.0 0.00 0.00 0.00 70 1016.2
20260506202226 9 200 0.0 0.0 0.00 0.00 0.00 70 1016.2
20260506201349 9 170 0.0 1.6 0.00 0.00 0.00 70 1016.2
20260506200723 9 162 0.0 0.0 0.00 0.00 0.00 70 1016.3
20260506200349 9 134 0.0 0.0 0.00 0.00 0.00 70 1016.3
20260506195351 10 182 0.0 0.0 0.00 0.00 0.00 70 1016.3
20260506195230 10 182 0.0 0.0 0.00 0.00 0.00 69 1016.4
20260506194352 10 170 0.0 0.0 0.00 0.00 0.00 69 1016.4
20260506193726 10 161 0.0 1.6 0.00 0.00 0.00 69 1016.4
20260506193342 10 193 0.0 1.6 0.00 0.00 0.00 69 1016.3
20260506192344 10 179 0.0 0.0 0.00 0.00 0.00 69 1016.3
20260506192223 10 179 0.0 0.0 0.00 0.00 0.00 69 1016.2
20260506191345 10 104 0.0 1.6 0.00 0.00 0.00 69 1016.2
20260506190729 10 197 0.0 0.0 0.00 0.00 0.00 69 1016.2
20260506190345 10 191 1.6 4.8 0.00 0.00 0.00 69 1016.2
20260506185347 10 132 1.6 1.6 0.00 0.00 0.00 68 1016.2
20260506185226 10 109 0.0 1.6 0.00 0.00 0.00 68 1016.1
20260506184348 10 189 0.0 0.0 0.00 0.00 0.00 67 1016.1
20260506183723 10 217 0.0 0.0 0.00 0.00 0.00 67 1016.1
20260506183349 10 217 0.0 0.0 0.00 0.00 0.00 66 1016.1
20260506182351 10 238 1.6 3.2 0.00 0.00 0.00 66 1016.0
20260506182229 10 245 0.0 3.2 0.00 0.00 0.00 66 1016.0
20260506181352 10 261 1.6 4.8 0.00 0.00 0.00 65 1015.9
20260506180726 11 257 0.0 0.0 0.00 0.00 0.00 64 1015.9
20260506180342 11 258 1.6 4.8 0.00 0.00 0.00 64 1015.9
20260506175344 11 243 1.6 1.6 0.00 0.00 0.00 63 1015.8
20260506175223 11 257 0.0 4.8 0.00 0.00 0.00 63 1015.8
20260506174345 11 237 1.6 4.8 0.00 0.00 0.00 62 1015.8
20260506173729 11 220 1.6 4.8 0.00 0.00 0.00 62 1015.7
20260506173345 11 255 1.6 3.2 0.00 0.00 0.00 61 1015.6
20260506172347 11 254 3.2 4.8 0.00 0.00 0.00 60 1015.5
20260506172226 11 258 0.0 4.8 0.00 0.00 0.00 60 1015.4
20260506171348 11 249 3.2 8.0 0.00 0.00 0.00 59 1015.4
20260506170722 11 250 1.6 4.8 0.00 0.00 0.00 59 1015.4
20260506170349 11 240 1.6 1.6 0.00 0.00 0.00 59 1015.3
20260506165350 12 261 0.0 1.6 0.00 0.00 0.00 58 1015.3
20260506165229 12 275 3.2 4.8 0.00 0.00 0.00 58 1015.3
20260506164351 12 279 3.2 8.0 0.00 0.00 0.00 56 1015.2
20260506163726 12 274 3.2 8.0 0.00 0.00 0.00 56 1015.1
20260506163342 12 231 1.6 1.6 0.00 0.00 0.00 55 1015.1
20260506162343 12 155 0.0 0.0 0.00 0.00 0.00 56 1015.1
20260506162222 12 317 0.0 1.6 0.00 0.00 0.00 56 1015.1
20260506161345 13 241 1.6 8.0 0.00 0.00 0.00 55 1015.0
20260506160728 13 265 8.0 9.7 0.00 0.00 0.00 55 1014.9
20260506160344 13 268 3.2 9.7 0.00 0.00 0.00 55 1014.9
20260506155346 12 289 9.7 12.9 0.00 0.00 0.00 56 1014.9
20260506155225 12 304 3.2 12.9 0.00 0.00 0.00 56 1014.9
20260506154347 12 266 3.2 3.2 0.00 0.00 0.00 57 1014.9
20260506153721 12 288 3.2 9.7 0.00 0.00 0.00 57 1014.9
20260506153347 12 288 4.8 9.7 0.00 0.00 0.00 56 1014.9
20260506152349 13 281 8.0 19.3 0.00 0.00 0.00 55 1014.9
20260506152228 13 305 11.3 22.5 0.00 0.00 0.00 55 1014.8
20260506151350 13 296 4.8 8.0 0.00 0.00 0.00 54 1014.7
20260506150724 13 260 3.2 4.8 0.00 0.00 0.00 55 1014.7
20260506150351 13 268 3.2 8.0 0.00 0.00 0.00 56 1014.7
20260506145342 13 298 4.8 14.5 0.00 0.00 0.00 56 1014.8
20260506145221 13 309 4.8 8.0 0.00 0.00 0.00 55 1014.8
20260506144343 13 296 8.0 12.9 0.00 0.00 0.00 55 1014.7
20260506143728 13 303 4.8 9.7 0.00 0.00 0.00 56 1014.7
20260506143344 13 287 4.8 16.1 0.00 0.00 0.00 55 1014.7
20260506142345 13 266 4.8 14.5 0.00 0.00 0.00 57 1014.8
20260506142224 13 279 9.7 11.3 0.00 0.00 0.00 57 1014.8
20260506141347 13 283 4.8 9.7 0.00 0.00 0.00 56 1014.8
20260506140721 13 269 4.8 12.9 0.00 0.00 0.00 57 1014.8
20260506140347 13 270 8.0 16.1 0.00 0.00 0.00 57 1014.8
20260506135349 13 306 4.8 8.0 0.00 0.00 0.00 58 1014.7
20260506135228 13 290 1.6 9.7 0.00 0.00 0.00 58 1014.7
20260506134350 12 233 8.0 11.3 0.00 0.00 0.00 59 1014.7
20260506133724 12 270 4.8 9.7 0.00 0.00 0.00 58 1014.8
20260506133350 12 266 3.2 4.8 0.00 0.00 0.00 59 1014.8
20260506132342 13 296 4.8 9.7 0.00 0.00 0.00 58 1014.8
20260506132221 13 287 3.2 12.9 0.00 0.00 0.00 58 1014.8
20260506131343 13 254 8.0 9.7 0.00 0.00 0.00 57 1014.7
20260506130727 13 254 0.0 12.9 0.00 0.00 0.00 57 1014.7
20260506130343 13 226 3.2 4.8 0.00 0.00 0.00 58 1014.8
20260506125345 13 275 3.2 8.0 0.00 0.00 0.00 60 1014.8
20260506125224 13 284 4.8 11.3 0.00 0.00 0.00 59 1014.8
20260506124346 12 291 4.8 8.0 0.00 0.00 0.00 61 1014.9
20260506123721 12 223 4.8 9.7 0.00 0.00 0.00 62 1014.9
20260506123347 12 295 4.8 9.7 0.00 0.00 0.00 62 1014.9
20260506122349 12 292 8.0 9.7 0.00 0.00 0.00 61 1014.9
20260506122227 12 283 9.7 14.5 0.00 0.00 0.00 60 1015.0
20260506121350 12 265 9.7 12.9 0.00 0.00 0.00 59 1015.0
20260506120724 12 246 3.2 9.7 0.00 0.00 0.00 60 1015.0
20260506120350 12 291 9.7 14.5 0.00 0.00 0.00 59 1015.0
20260506115342 12 278 9.7 12.9 0.00 0.00 0.00 60 1015.1
20260506115221 12 302 8.0 16.1 0.00 0.00 0.00 60 1015.1
20260506114343 12 266 1.6 3.2 0.00 0.00 0.00 60 1015.1
20260506113727 12 288 1.6 9.7 0.00 0.00 0.00 61 1015.2
20260506113343 12 298 4.8 11.3 0.00 0.00 0.00 61 1015.2
20260506112345 12 280 4.8 9.7 0.00 0.00 0.00 60 1015.3
20260506112224 12 292 1.6 4.8 0.00 0.00 0.00 60 1015.3
20260506111346 12 306 4.8 14.5 0.00 0.00 0.00 59 1015.3
20260506110731 12 268 1.6 3.2 0.00 0.00 0.00 60 1015.3
20260506110347 12 250 3.2 4.8 0.00 0.00 0.00 60 1015.4
20260506105348 12 249 8.0 14.5 0.00 0.00 0.00 59 1015.4
20260506105227 12 281 12.9 16.1 0.00 0.00 0.00 59 1015.4
20260506104349 12 162 1.6 1.6 0.00 0.00 0.00 59 1015.4
20260506103724 12 242 3.2 9.7 0.00 0.00 0.00 60 1015.4
20260506103350 12 281 0.0 9.7 0.00 0.00 0.00 60 1015.4
20260506102341 12 220 0.0 3.2 0.00 0.00 0.00 62 1015.4
20260506102231 12 99 1.6 1.6 0.00 0.00 0.00 62 1015.4
20260506101343 12 293 8.0 9.7 0.00 0.00 0.00 62 1015.4
20260506100727 12 293 3.2 4.8 0.00 0.00 0.00 64 1015.4
20260506100343 11 295 8.0 9.7 0.00 0.00 0.00 63 1015.4
20260506095344 11 220 1.6 4.8 0.00 0.00 0.00 64 1015.4
20260506095223 11 275 1.6 3.2 0.00 0.00 0.00 63 1015.4
20260506094345 11 253 0.0 1.6 0.00 0.00 0.00 64 1015.5
20260506093729 11 285 4.8 4.8 0.00 0.00 0.00 66 1015.5
20260506093345 11 38 0.0 1.6 0.00 0.00 0.00 67 1015.6
20260506092347 11 279 0.0 8.0 0.00 0.00 0.00 68 1015.5
20260506092226 11 280 0.0 4.8 0.00 0.00 0.00 68 1015.6
20260506091348 10 295 3.2 4.8 0.00 0.00 0.00 70 1015.5
20260506090722 10 295 3.2 4.8 0.00 0.00 0.00 70 1015.5
20260506090349 10 275 3.2 8.0 0.00 0.00 0.00 72 1015.5
20260506085350 10 290 8.0 9.7 0.00 0.00 0.00 72 1015.6
20260506085229 10 291 4.8 9.7 0.00 0.00 0.00 73 1015.6
20260506084341 10 292 3.2 8.0 0.00 0.00 0.00 73 1015.6
20260506083726 10 300 8.0 14.5 0.00 0.00 0.00 73 1015.6
20260506083342 10 312 3.2 11.3 0.00 0.00 0.00 73 1015.6
20260506082344 10 299 1.6 9.7 0.00 0.00 0.00 71 1015.5
20260506082222 10 287 0.0 4.8 0.00 0.00 0.00 72 1015.5
20260506081345 10 309 3.2 4.8 0.00 0.00 0.00 72 1015.4
20260506080729 10 293 1.6 3.2 0.00 0.00 0.00 72 1015.3
20260506080345 10 290 4.8 9.7 0.00 0.00 0.00 72 1015.3
20260506073348 9 260 3.2 4.8 0.00 0.00 0.00 74 1015.1
20260506072350 9 313 3.2 4.8 0.00 0.00 0.00 76 1015.1
20260506072229 9 339 3.2 4.8 0.00 0.00 0.00 76 1015.2
20260506071341 8 315 3.2 4.8 0.00 0.00 0.00 76 1015.1
20260506070726 8 287 1.6 4.8 0.00 0.00 0.00 77 1015.2
20260506070342 8 275 0.0 4.8 0.00 0.00 0.00 77 1015.2
20260506062347 8 355 3.2 4.8 0.00 0.00 0.00 79 1015.1
20260506062226 8 326 3.2 4.8 0.00 0.00 0.00 79 1015.2
20260506061348 8 331 1.6 4.8 0.00 0.00 0.00 80 1015.2
20260506060722 7 305 1.6 0.0 0.00 0.00 0.00 81 1015.2
20260506060348 7 291 3.2 4.8 0.00 0.00 0.00 81 1015.2
20260506051344 7 267 1.6 4.8 0.00 0.00 0.00 84 1015.0
20260506050728 7 293 1.6 4.8 0.00 0.00 0.00 85 1015.0
20260506050344 7 287 1.6 4.8 0.00 0.00 0.00 85 1014.9
20260506044347 6 269 0.0 3.2 0.00 0.00 0.00 87 1014.7
20260506043721 6 238 1.6 3.2 0.00 0.00 0.00 87 1014.8
20260506043347 6 283 3.2 8.0 0.00 0.00 0.00 87 1014.7
20260506042349 6 284 1.6 3.2 0.00 0.00 0.00 88 1014.7
20260506042228 6 283 3.2 4.8 0.00 0.00 0.00 88 1014.6
20260506041350 6 295 1.6 8.0 0.00 0.00 0.00 89 1014.5
20260506040724 6 261 1.6 1.6 0.00 0.00 0.00 89 1014.4
20260506040351 6 259 1.6 3.2 0.00 0.00 0.00 89 1014.4
20260506035342 6 287 1.6 4.8 0.00 0.00 0.00 89 1014.4
20260506035221 6 281 0.0 0.0 0.00 0.00 0.00 89 1014.4
20260506034343 6 295 4.8 9.7 0.00 0.00 0.00 89 1014.3
20260506033727 6 297 4.8 4.8 0.00 0.00 0.00 89 1014.2
20260506033343 6 289 3.2 4.8 0.00 0.00 0.00 89 1014.2
20260506032345 6 297 4.8 8.0 0.00 0.00 0.00 88 1014.1
20260506032224 6 297 3.2 4.8 0.00 0.00 0.00 88 1014.1
20260506031346 6 282 3.2 4.8 0.00 0.00 0.00 87 1013.9
20260506030721 6 272 1.6 4.8 0.00 0.00 0.00 88 1013.9
20260506030347 6 284 3.2 4.8 0.00 0.00 0.00 88 1013.9
20260506025348 6 282 3.2 4.8 0.00 0.00 0.00 88 1013.8
20260506025227 6 284 3.2 4.8 0.00 0.00 0.00 88 1013.8
20260506024350 6 289 1.6 4.8 0.00 0.00 0.00 88 1013.7
20260506023724 6 276 1.6 3.2 0.00 0.00 0.00 88 1013.6
20260506023350 6 278 3.2 4.8 0.00 0.00 0.00 88 1013.6
20260506022342 6 291 1.6 4.8 0.00 0.00 0.00 88 1013.5
20260506022221 6 284 3.2 4.8 0.00 0.00 0.00 88 1013.5
20260506021343 6 293 0.0 4.8 0.00 0.00 0.00 88 1013.5
20260506020727 6 268 1.6 4.8 0.00 0.00 0.00 88 1013.4
20260506020343 6 292 1.6 3.2 0.00 0.00 0.00 88 1013.4
20260506015345 6 290 0.0 1.6 0.00 0.00 0.00 88 1013.3
20260506015224 6 277 1.6 3.2 0.00 0.00 0.00 88 1013.3
20260506014346 6 285 0.0 0.0 0.00 0.00 0.00 87 1013.3
20260506013720 6 296 1.6 1.6 0.00 0.00 0.00 87 1013.3
20260506013347 6 278 1.6 1.6 0.00 0.00 0.00 87 1013.2
20260506012348 7 280 1.6 4.8 0.00 0.00 0.00 86 1013.2
20260506012227 7 290 3.2 4.8 0.00 0.00 0.00 86 1013.2
20260506011349 7 297 1.6 4.8 0.00 0.00 0.00 86 1013.2
20260506010724 7 294 1.6 3.2 0.00 0.00 0.00 86 1013.3
20260506010350 7 289 0.0 0.0 0.00 0.00 0.00 86 1013.3
20260506005341 7 286 0.0 0.0 0.00 0.00 0.00 85 1013.2
20260506005220 7 286 0.0 0.0 0.00 0.00 0.00 85 1013.2
20260506004343 7 281 0.0 0.0 0.00 0.00 0.00 85 1013.2
20260506003727 7 281 0.0 3.2 0.00 0.00 0.00 85 1013.2
20260506003343 7 288 0.0 1.6 0.00 0.00 0.00 85 1013.2
20260506002345 7 282 0.0 3.2 0.00 0.00 0.00 85 1013.2
20260506002224 7 272 0.0 0.0 0.00 0.00 0.00 85 1013.1
20260506001346 7 295 0.0 0.0 0.00 0.00 0.00 85 1013.1